North Bay Airport
CYYB : now visible

Airfield :











YOU CAN JOIN US ON...

 
LOGIN :

Register | Disclaimer

   EN    FR    IT 

 









Legend :    VFR   Marginal VFR   IFR   Intensive IFR   Very Intensive IFR
Visi :
Ceiling :
>= 8 km
>= 3000ft
5 to 8 km
1000 to 3000 ft
1500m to 5 km
500 to 1000 ft
800 to 1500m
200 to 500 ft
< 800m
< 200 ft
Symbols :   Thunderstorms  Fog  Heavy snow  Heavy precipitations  Wind > 20 kt






- Airport Elevation : 1215 ft
- IATA code : YYB


CYYB - North Bay

CURRENT METAR :
  • 260000Z 26005KT 30SM BKN280 23/16 A3001 RMK CI7 SLP165 DENSITY ALT 2400FT

EXPIRED METARs :
  • 252300Z 24009KT 30SM BKN280 24/16 A3001 RMK CI7 SLP162 DENSITY ALT 2400FT
  • 252200Z 24010KT 200V260 30SM SCT280 24/16 A3001 RMK CI3 SLP164 DENSITY ALT 2500FT

TAF TAF CYYB
Valid from the 25 at 20:00 until the 26 at 08:00 UTC


251935Z 2520/2608 24010KT P6SM FEW015
TEMPO 2520/2521 BKN015 RMK NXT FCST BY 260200Z
CZYZ FIR / North America



MET'MAP, your aeronautical weather chart ! - Copyright ORBIFLY December 2007 - Disclaimer

ORBIFLY MET'MAP TEAM :

Programming & Development : Alexandra Zaïnal
Concept & original design : Baudouin d'Aumeries
Assistance for programming : Marc-Olivier Méhu
Technical & hardware support : Manuel Goepfert

Contact : metmap@orbifly.com




SOURCES & CREDITS :

   NOAA       Earth
Advisory